Regional Weather Roundup
Issued by NWS Wakefield, VA

Home | Current Version | Previous Version | Text Only | Print | Product List | Glossary Off
Versions: 1 2 3 4 5 6 7 8 9 10 11 12 13 14 15 16 17 18 19 20 21 22 23 24 25 26 27 28 29 30 31 32 33 34 35 36 37 38 39 40 41 42 43 44 45 46 47 48 49 50

000
ASUS41 KAKQ 161315
RWRAKQ

REGIONAL WEATHER ROUNDUP
NATIONAL WEATHER SERVICE WAKEFIELD VA
900 AM EDT WED AUG 16 2017

Note: "fair" indicates few or no clouds below 12,000 feet with no
significant weather and/or obstructions to visibility. * = Denotes
station may not report precipitation (e.g., rain,snow,etc.),
thunder or fog.

VAZ042-051-052>054-056-161400-
NORTHERN VIRGINIA

CITY           SKY/WX    TMP DP  RH WIND       PRES   REMARKS
WASH NATIONAL  PTSUNNY   76  74  93 E5        30.01S FOG
DULLES         PTSUNNY   75  72  90 CALM      30.02R
FORT BELVOIR   CLOUDY    72  72 100 CALM      30.01R FOG
QUANTICO       PTSUNNY   76  74  93 CALM      30.01S FOG
FREDERICKSBRG* FOG       72  72 100 CALM      30.01S VSB 1/2
STAFFORD*      FOG       71  71 100 S3        30.05S VSB 1/2
WARRENTON      PTSUNNY   73  69  87 CALM      30.02S
CULPEPER*      SUNNY     74  74  99 CALM      30.03R
MANASSAS*      FOG       72  70  94 CALM      30.02R VSB 1
LEESBURG*      SUNNY     77  73  88 CALM      30.03R
WINCHESTER     MOSUNNY   70  70 100 W3        30.05R FOG
FRONT ROYAL*   CLOUDY    70  70 100 S6        30.04R
LURAY*         FOG       70  70 100 CALM      30.06R VSB 1/2
$$

VAZ048-049-060>072-079>083-161400-
CENTRAL AND SOUTH CENTRAL VIRGINIA

CITY           SKY/WX    TMP DP  RH WIND       PRES   REMARKS
RICHMOND       CLOUDY    75  73  93 NE3       30.01R FOG
CHESTERFIELD*  FAIR      76  73  91 NE3       30.03R
PETERSBURG*    PTSUNNY   75  74  94 NE3       30.03R
HANOVER        CLOUDY    74  70  87 E3        30.03R FOG
TAPPAHANNOCK*  MOSUNNY  N/A N/A N/A CALM      30.02R HAZE
QUINTON*       CLOUDY    73  73 100 CALM      30.01R FOG
CHARLOTTSVILLE MOSUNNY   76  73  91 CALM      30.04R
GORDONSVILLE*  SUNNY     76  73  90 CALM      30.02R
ORANGE*        SUNNY     75  73  94 CALM      30.03R
LOUISA*        SUNNY     73  73 100 CALM      30.03R
BUMPASS*       CLOUDY    73  73 100 CALM      30.03R
FARMVILLE*     CLOUDY    77  75  93 CALM      30.02R FOG
CREWE*         CLOUDY    73  69  87 CALM      30.03R
FORT PICKETT*  CLOUDY   N/A N/A N/A E3        30.04R
CHASE CITY*    CLOUDY    74  74  99 CALM      30.04R
CLARKSVILLE*   CLOUDY    73  73 100 CALM      30.03S
SOUTH HILL*    CLOUDY    74  74 100 N5        30.09R
LAWRENCEVILLE* PTSUNNY   75  73  95 CALM      30.03R
EMPORIA*       CLOUDY    73  73 100 NW5       30.03R
$$

VAZ088>098-161400-
SOUTHEAST VIRGINIA

CITY           SKY/WX    TMP DP  RH WIND       PRES   REMARKS
NORFOLK        PTSUNNY   80  76  87 N10       29.99R
VIRGINIA BEACH PTSUNNY   80  76  87 N9        29.98R
NORFOLK NAVAL  PTSUNNY   81  75  82 N9        30.01R
WEST POINT*    CLOUDY    74  73  99 CALM      30.03R
SALUDA*        CLOUDY    76  75  99 NW3       30.00R
NEWPORT NEWS   CLOUDY    77  73  87 N6        30.00R
LANGLEY AFB    PTSUNNY   78  76  94 N10       29.99R
FORT EUSTIS    PTSUNNY   80  74  79 N6        29.99R
WILLIAMSBURG*  MOSUNNY   77  77 100 CALM      30.01R
HR EXEC AP*    CLOUDY    79  75  89 N6        29.98R
FRANKLIN*      MOSUNNY   77  74  89 NW5       30.01R
US460-WAKEFLD  CLOUDY    77  75  93 CALM      30.01R
$$

VAZ020-022-025-037-045-161400-
WEST CENTRAL AND SOUTHWEST VIRGINIA

CITY           SKY/WX    TMP DP  RH WIND       PRES   REMARKS
STAUNTON*      FOG       69  69 100 CALM      30.10R VSB 1/2
WAYNESBORO*    CLOUDY    69  69 100 CALM      30.10R VSB 1/2
HOT SPRINGS VA SUNNY     64  64 100 CALM      30.22S
LYNCHBURG      SUNNY     76  72  87 CALM      30.07R
DANVILLE       SUNNY     78  76  93 NE3       30.05R
SOUTH BOSTON*  CLOUDY    73  72  95 CALM      30.04S
MARTINSVILLE   SUNNY     75  69  82 CALM      30.10R
ROANOKE        SUNNY     76  69  79 N3        30.11R
BLACKSBURG     FOG       67  66  97 CALM      30.17R VSB<1/4
DUBLIN*        FOG       69  66  90 CALM      30.16S VSB 1/4
MARION*        CLOUDY    71  67  86 CALM      30.19S FOG
HILLSVILLE*    CLOUDY    68  64  86 CALM      30.16S FOG
RICHLANDS*     FOG       69  65  88 CALM      30.17S VSB 1/4
WISE*          PTSUNNY   72  72 100 CALM      30.19R
ABINGDON*      CLOUDY    73  73 100 CALM      30.15R
$$

MDZ021>025-VAZ099-100-161400-
SOUTHERN MARYLAND AND THE DELMARVA PENINSULA

CITY           SKY/WX    TMP DP  RH WIND       PRES   REMARKS
PATUXENT RIVER MOSUNNY   77  75  93 N3        30.00R
BAY BRIDGE APT CLOUDY    75  73  94 NW5       30.00R FOG
LEONARDTOWN    MOSUNNY   73  72  94 CALM      30.02R
DOVER          PTSUNNY   75  72  88 NW5       29.97S
GEORGETOWN     CLOUDY    74  71  91 N5        29.99S
EASTON         MOSUNNY   75  72  88 CALM      30.03R
CAMBRIDGE      MOSUNNY   75  72  88 N7        29.99R
SALISBURY      CLOUDY    75  73  93 N6        29.99R
OCEAN CITY     CLOUDY    76  75  97 NW5       29.98R
WALLOPS ISLAND CLOUDY    75  75 100 N6        29.99R
ACCOMACK*        N/A    N/A N/A N/A MISG        N/A
$$

NCZ012>017-030>032-161400-
NORTH CENTRAL AND EASTERN NORTH CAROLINA

CITY           SKY/WX    TMP DP  RH WIND       PRES   REMARKS
ROANOKE RAPIDS CLOUDY    73  73 100 N3        30.02R
RALEIGH        MOSUNNY   79  75  87 NE5       30.03R
ELIZABETH CITY CLOUDY    80  77  90 N9        29.98R
AHOSKIE*         N/A     76  73  92 N6        30.01R
EDENTON*       CLOUDY    78  76  91 CALM      29.99R
CURRITUCK*     PTSUNNY   79  64  60 N9        29.99R
KILL DEVIL HLS MOSUNNY   79  76  91 CALM      29.96R
MANTEO         SUNNY     80  74  83 NE8       29.98R
CAPE HATTERAS  CLOUDY    83  79  88 VRB7      29.96R
TARBORO*       NOT AVBL
GOLDSBORO      MOSUNNY   79  81 100 N6        29.99R
WASHINGTON     CLOUDY    76  75  95 N6        30.00R
GREENVILLE     CLOUDY    77  77 100 N5        30.02R FOG
NEW BERN       CLOUDY    76  76 100 N5        30.00R FOG
WILMINGTON     SUNNY     82  75  79 N7        29.98R
$$

VAZ048-161400-
ELSEWHERE

CITY           SKY/WX    TMP DP  RH WIND       PRES   REMARKS
HARRISBURG PA  FOG       70  70 100 NW7       30.01R VSB 3/4
BALTIMORE      FOG       72  72 100 W5        30.00R VSB 1/2
ANNAPOLIS      CLOUDY    74  74 100 NW5       29.99R FOG
ANDREWS AFB    PTSUNNY   73  73 100 CALM      30.00S
PHILADELPHIA   MOSUNNY   75  69  81 NW3       29.99R
HENDERSON NC   CLOUDY    71  70  97 NE5       30.04R
GREENSBORO     MOSUNNY   77  74  90 N6        30.06R
ROCKY MOUNT    CLOUDY    75  75 100 N9        30.02R
$$

VAZ100-161400-
MARINE

STATION/POSITION TIME  TEMP    WIND        PRES    WAVE   SWELL
                       AIR SEA DIR/SP/G            HT/PER HT/PER
                 (UTC) (F)     (DEG/KT/KT) (MB)    (FT/S) (FT/S)
BRANDYWINE LGT   1242   74     340/  8/ 11 1015.4R
CAPE MAY NJ      1248   76 76  350/  7/ 10 1014.5R
LEWES DE         1242   74 76  320/ 11/ 12 1014.8R
15NM E FENWICK I 1250   76 76  330/ 10/ 14 1015.1R   4/12   3/12
OCEAN-CITY-INLET 1248   75 77  360/  6/  7 1015.4R
WACHAPREAGUE VA  1248   76 80  320/  4/  6 1015.3R
THOMAS POINT MD  1300   72 79  300/  3/  4   N/A
GOOSES REEF MD   1300   77 78   30/  4/  6 1016.4    0
COVE POINT MD    1248   77      20/  5/  7 1016.4R
SOLOMONS ISLAND  1242   77 80  360/  3/  4   N/A
BISHOPS HEAD MD  1248   76 79   10/  7/  9 1015.8R
PINEY POINT MD   1248          350/  3/  4   N/A
POTOMAC MD       1300   77 80  360/  4/  6 1015.1    0
CAMBRIDGE MD     1248   78 80              1016.4R
LEWISETTA VA     1248   77 81  360/  4/  6 1015.9R
RAPPAHANNOCK LGT 1248          350/ 11/ 12 1016.1R
STINGRAY PT      1300   78 80   10/ 10/ 12 1016.1    1/ 3
YORK RVR RNG VA  1248   77     360/ 10/ 11 1015.9R
YORKTOWN VA      1248   76 80  340/  8/  8 1015.6R
JAMESTOWN VA     1300      82  360/  6/  8   N/A     0
DOMINION TERM VA 1248   78      10/  7/ 10 1015.8R
KIPTOPEKE VA     1242      78   10/  8/ 10   N/A
CHES BAY BRIDGE  1248   78 78   20/ 14/ 16 1015.3R
CAPE HENRY VA    1248   78     350/ 13/ 15   N/A
WILLOUBY STN VA  1242   78     350/ 12/ 13 1015.6R
S CRANEY ISL VA  1248   78     360/  9/ 10 1015.3R
CAPE HENRY BUOY  1230      77                N/A     3/12   2/12
1ST LANDING BUOY 1300   79 78              1015.6    2/ 3
64NM E OF VA BCH 1250   77 78   10/  8/ 10 1015.0R   5/10   5/10
DUCK PIER NC     1248   78 78   20/  8/  9 1014.7R
44100 DUCK FRF   1205      78                N/A     3/ 8   2/11
44056 DUCK FRF   1230      78                N/A     3/10   2/12
OREGON INLET NC  1242   79 81   10/  6/  9 1014.6R
HATTERAS NC      1248   81 83   10/  9/ 11 1014.7R
DIAMOND SHLS NC  1250   80 83   20/ 12/ 14 1014.4R   3/ 9   3/ 9
CAPE LOOKOUT NC  1300   79     360/ 10/ 12 1014.7R
$$



USA.gov is the U.S. government's official web portal to all federal, state and local government web resources and services.